GFSMW_sfc_30mbdewp_315.txt.gz
Dewpoint
29 30 32 33 35 36 34 35 33 35 37 35 31 32 32 35 36 39 37 38 41 40 40 43 42 43 42 40 43 40 39 36 38 37 40 42 43 41 54 55 48 47 50
30 31 31 33 33 33 34 36 35 35 36 39 37 37 34 37 37 39 39 37 38 40 39 42 42 42 43 40 42 40 40 38 38 36 42 38 41 36 44 44 43 40 46
29 31 32 32 34 33 34 34 36 35 37 38 37 37 38 36 37 38 39 37 37 39 38 40 41 41 43 42 41 41 40 38 36 38 37 36 36 37 43 42 38 36 39
28 31 32 33 35 34 33 34 36 37 36 37 37 37 37 36 38 39 38 41 38 38 39 40 41 40 42 40 41 43 41 40 37 37 37 37 37 35 33 36 35 35 35
28 29 31 31 35 34 35 35 34 35 37 37 37 38 37 38 39 38 39 41 39 40 40 40 41 40 42 41 40 41 41 42 40 38 38 38 36 35 34 32 33 34 35
27 28 30 33 35 37 35 35 35 36 35 37 37 37 38 39 38 39 41 41 41 41 42 41 41 41 42 41 42 41 41 41 42 41 39 39 37 37 35 34 34 33 34
24 27 30 33 34 35 35 36 35 34 35 37 39 42 42 41 42 43 43 44 44 44 45 46 46 45 44 43 43 43 43 42 41 41 40 41 39 39 38 37 35 34 35
25 26 27 31 33 35 36 36 35 34 38 39 40 41 42 42 42 42 43 43 44 43 43 43 44 44 45 45 45 45 44 44 42 43 42 42 42 41 39 38 35 33 34
26 25 27 29 34 34 35 34 35 37 38 38 40 41 41 40 40 40 41 41 40 38 38 39 38 38 39 41 42 42 42 44 44 44 43 43 43 43 41 40 37 35 33
27 26 28 30 30 30 36 36 36 36 37 38 40 40 38 37 36 35 34 34 35 34 34 33 33 33 34 34 35 34 34 36 38 38 39 40 42 43 42 41 40 39 36
27 28 29 28 32 35 35 35 35 32 30 33 36 34 32 32 31 31 32 32 31 31 31 30 30 31 30 30 31 32 34 32 32 34 32 34 35 35 37 40 42 40 39
28 29 30 33 33 35 35 33 30 26 24 26 28 30 29 30 28 29 30 30 28 30 28 29 30 30 29 30 31 31 30 27 26 28 28 28 29 29 31 33 34 33 37
32 32 32 33 33 32 29 26 24 23 23 23 24 27 27 27 26 27 27 26 28 28 29 30 29 28 30 28 28 28 26 26 26 26 28 27 28 26 26 26 27 27 29
31 32 32 32 30 26 25 24 23 23 23 23 23 24 25 25 23 24 24 26 27 28 27 26 27 29 28 28 26 24 23 24 24 26 27 27 27 26 27 28 31 32 32
31 32 31 28 24 23 22 23 23 23 23 23 22 21 22 20 21 22 24 25 25 26 25 26 27 28 21 17 21 27 25 25 24 24 26 27 28 30 30 30 29 30 31
31 32 28 23 22 21 21 23 21 21 21 19 19 16 19 19 20 22 22 22 25 24 24 25 23 19 16 21 25 22 24 23 26 28 27 28 29 29 29 29 30 31 31
30 26 23 22 20 20 21 20 20 20 19 18 14 15 18 19 20 21 21 22 22 22 23 19 18 18 22 23 21 26 24 28 27 27 29 29 28 29 28 27 28 31 30
25 23 22 21 22 21 20 20 20 20 18 15 13 15 17 18 20 20 20 21 21 21 18 17 19 20 19 21 25 25 23 24 25 26 29 28 25 26 26 28 27 28 28
26 25 24 23 22 21 21 20 21 20 18 15 14 16 18 18 18 19 20 21 20 18 17 17 18 18 20 21 23 24 21 23 23 26 24 22 22 24 26 26 25 26 30
25 24 23 23 22 23 21 21 19 17 16 14 15 17 18 18 18 19 19 21 18 18 16 17 18 19 19 21 22 22 23 23 25 21 18 21 22 23 24 23 24 25 28
24 23 23 21 20 18 18 12 10 10 14 15 16 17 17 17 18 18 20 18 19 16 18 17 17 19 20 19 21 22 23 24 24 21 21 21 22 22 23 23 23 24 29
23 24 20 18 18 12 11 11 11 13 15 16 16 16 17 18 16 19 19 19 17 18 17 17 17 18 19 18 20 22 24 25 24 22 23 23 23 22 22 23 24 26 30
19 18 15 10 10 13 12 11 13 15 16 16 17 17 18 18 20 19 19 19 19 18 18 18 17 18 18 20 21 22 24 25 24 24 24 24 22 21 22 25 27 29 31
12 9 9 11 12 12 12 13 14 16 15 15 16 15 15 21 22 21 21 21 21 21 20 19 18 19 21 21 22 22 24 24 24 24 24 20 20 21 23 27 29 31 31
8 11 12 12 12 12 12 12 15 16 15 15 15 16 21 22 23 23 23 22 22 22 21 21 20 21 20 20 22 22 21 22 24 22 20 18 19 23 25 25 26 27 29
12 12 11 11 11 10 11 16 18 17 17 18 18 21 23 23 22 21 18 19 21 21 22 22 22 21 21 20 20 20 20 20 21 20 18 17 20 21 23 25 25 28 28

GFSMW_sfc_30mbdewp_321.txt.gz
Dewpoint
29 32 34 34 34 35 34 33 35 36 35 34 32 32 32 35 37 38 38 39 39 39 39 39 39 40 39 39 41 39 39 37 39 33 31 38 43 30 40 39 36 36 37
28 31 33 34 35 34 34 33 35 36 37 37 37 33 34 36 38 40 39 38 38 39 40 40 40 40 40 39 39 40 39 38 39 35 35 30 33 32 38 38 36 35 37
28 31 33 33 34 34 34 33 35 36 37 37 37 38 38 38 38 39 40 42 41 40 40 41 42 42 42 41 40 41 39 38 38 38 34 31 29 35 34 34 35 35 36
28 31 33 33 33 33 34 34 35 36 36 37 35 34 34 34 38 41 43 44 44 44 44 43 43 43 43 43 43 43 41 41 38 39 38 37 36 34 34 35 35 36 36
28 30 32 32 32 33 34 34 35 35 36 36 37 37 37 40 42 43 43 44 42 41 41 41 40 40 41 40 42 40 42 43 42 41 40 39 38 37 35 35 36 37 37
28 30 32 33 33 33 34 34 35 35 37 38 38 38 41 41 41 40 39 41 40 37 37 36 36 37 36 36 38 37 39 41 41 42 42 42 41 40 40 38 39 38 38
28 30 31 32 33 33 34 34 35 35 37 40 42 41 41 40 39 37 36 36 35 32 32 33 33 33 33 33 34 36 37 35 37 34 32 39 36 37 37 40 40 40 39
27 30 32 33 34 33 34 34 35 35 40 42 41 41 39 37 36 34 33 32 32 30 32 31 32 31 31 32 32 35 34 31 32 31 30 32 33 34 30 33 33 31 37
27 30 32 34 34 34 34 35 37 40 41 40 38 36 35 32 32 32 31 30 30 28 30 30 30 30 30 31 31 32 31 29 28 28 29 29 30 32 28 33 31 30 30
27 30 32 34 35 35 37 38 39 40 40 37 34 32 31 31 31 30 27 28 29 29 28 27 28 28 29 30 29 29 31 29 28 27 28 27 28 29 28 29 27 27 26
28 30 33 34 36 37 37 38 39 38 35 33 31 30 29 30 30 28 27 27 28 28 26 26 27 28 27 26 25 29 28 27 26 27 27 26 28 27 27 28 28 27 27
28 31 35 36 36 33 31 31 30 29 29 30 29 29 28 28 26 25 26 26 25 28 26 26 27 27 25 23 24 26 24 24 23 25 26 26 26 28 28 29 27 27 27
33 35 35 34 30 27 25 24 24 24 25 25 26 26 26 25 23 24 25 24 24 26 25 25 26 24 22 21 24 24 23 23 24 25 27 26 27 27 27 27 27 27 29
34 34 31 28 26 25 24 24 24 24 24 24 23 23 24 22 22 23 23 22 24 25 25 24 26 22 21 21 23 23 23 23 25 26 26 25 24 24 25 27 29 30 29
31 29 27 26 25 24 24 24 23 21 21 20 20 20 23 21 22 21 21 22 23 25 25 25 22 20 20 17 23 25 24 22 23 24 22 22 24 23 29 24 23 24 24
27 26 24 23 24 24 22 21 21 20 19 16 16 21 21 20 20 21 21 22 21 23 23 22 19 19 20 21 23 25 24 21 22 21 21 25 23 27 22 21 24 24 23
25 23 22 23 23 21 21 20 20 21 19 18 17 20 19 18 19 20 21 20 20 22 22 21 19 19 19 21 22 24 23 21 21 21 22 24 23 26 22 22 22 22 21
24 22 22 22 21 21 21 21 21 22 22 21 17 16 17 17 19 19 19 20 21 21 21 19 19 18 19 21 22 23 22 21 21 21 23 24 24 25 23 22 22 21 22
24 24 22 22 21 21 22 21 15 15 17 16 16 18 21 20 20 20 20 21 21 21 19 19 19 19 20 21 22 23 21 21 21 22 23 24 24 25 24 23 23 22 22
23 23 24 24 20 17 14 13 14 16 18 19 19 19 18 18 17 20 20 21 20 20 21 21 21 20 21 21 22 22 22 21 21 20 21 23 25 25 25 24 24 22 21
24 20 15 13 13 14 14 14 15 16 18 17 17 17 18 19 21 22 22 22 22 22 21 21 21 21 21 21 22 23 23 21 21 21 22 22 23 24 25 24 24 21 23
13 13 13 14 14 14 14 15 14 16 16 17 17 18 20 22 22 23 23 22 22 21 21 21 20 22 22 22 22 23 24 24 23 23 23 23 24 25 22 23 21 22 24
12 13 13 12 13 15 16 16 17 17 18 19 19 20 22 22 24 23 22 21 21 21 19 18 20 20 21 22 23 24 24 24 24 24 24 24 22 21 22 21 21 22 25
13 13 12 12 13 16 18 17 18 21 21 20 20 21 22 23 23 22 21 20 20 18 17 18 20 21 21 22 23 23 23 23 23 23 23 21 22 23 22 20 21 23 24
12 13 13 14 16 17 18 20 23 24 22 21 21 22 22 23 21 19 19 18 18 17 18 19 20 21 19 19 19 18 18 19 19 19 19 19 18 17 16 18 20 23 22
13 14 15 15 17 19 22 24 25 25 23 22 22 22 21 22 19 17 15 15 14 16 18 20 18 16 16 16 16 16 16 16 15 15 15 15 15 16 18 20 20 18 19

GFSMW_sfc_30mbdewp_324.txt.gz
Dewpoint
29 32 34 34 34 35 35 34 35 35 35 33 34 33 32 35 37 39 39 39 39 40 40 41 41 41 41 40 41 40 39 38 39 36 33 34 40 36 38 37 37 37 37
27 31 33 34 34 34 34 33 35 36 36 36 35 33 33 35 39 40 42 43 41 41 41 42 43 42 42 42 42 42 40 39 39 36 34 31 30 36 36 36 37 37 38
26 29 32 33 34 34 34 33 35 36 37 37 37 37 38 38 39 42 42 43 43 42 42 42 42 42 42 40 41 42 41 40 40 40 36 35 33 35 35 36 37 37 38
26 28 32 33 33 34 34 34 35 36 37 37 36 35 34 36 41 43 43 40 39 39 39 38 38 38 38 38 39 40 41 42 41 41 40 39 37 35 35 36 38 38 38
26 28 31 33 33 34 34 34 35 36 37 37 36 37 39 42 43 42 41 38 35 36 36 36 34 34 34 34 37 37 39 40 38 40 42 41 41 38 37 37 38 40 40
25 28 31 33 33 33 34 34 34 35 37 37 38 38 41 41 38 38 35 33 33 33 33 33 32 32 33 33 35 36 34 35 33 32 32 38 34 33 33 32 35 37 39
24 27 30 32 32 33 33 34 34 35 37 38 41 42 41 39 35 34 33 30 28 30 31 31 30 31 31 32 33 33 33 30 31 30 28 34 31 33 27 29 30 29 29
24 27 30 31 32 33 33 34 34 35 38 42 41 40 38 36 34 31 31 31 29 30 31 30 30 30 30 30 30 31 32 29 28 29 28 29 29 31 28 28 28 24 24
24 27 30 31 32 33 34 34 35 38 41 41 39 36 35 33 31 30 30 29 30 30 28 28 27 29 29 27 26 28 31 29 27 28 28 27 29 29 29 29 29 26 22
25 27 31 32 33 34 35 36 39 41 40 37 34 32 31 31 30 28 27 27 29 27 25 26 27 28 25 25 26 29 28 25 25 27 27 26 27 27 28 28 29 28 26
26 28 32 34 35 37 37 39 40 38 35 33 31 30 30 31 28 26 27 26 28 27 25 26 26 26 23 23 26 26 23 23 22 23 25 25 27 28 28 29 29 27 26
28 31 34 36 36 36 38 38 37 33 30 30 30 29 29 29 26 26 26 25 24 27 26 26 25 26 22 22 25 23 23 23 21 23 25 26 22 25 26 27 26 26 27
33 35 35 34 32 33 33 31 28 27 28 28 28 28 27 25 23 24 24 24 23 23 27 25 24 26 22 21 24 23 22 22 22 24 25 25 23 24 25 25 26 28 29
35 33 31 29 27 26 25 24 24 24 25 24 24 25 24 22 22 23 23 22 23 23 24 25 25 26 21 21 24 22 23 22 22 23 25 24 23 24 23 24 25 21 22
31 29 27 26 25 24 24 24 24 22 22 20 20 19 23 22 22 22 22 22 23 23 24 26 25 24 21 20 19 23 24 23 21 21 23 22 22 22 22 26 21 22 23
28 26 25 24 24 24 22 21 20 19 19 17 16 20 23 21 21 21 22 23 22 22 23 23 24 23 20 20 21 25 25 23 20 18 21 21 22 24 24 26 24 23 22
25 24 24 24 22 21 21 20 21 22 20 19 18 21 21 19 21 22 23 22 22 22 22 23 23 20 21 21 23 26 25 23 20 19 20 20 20 22 24 25 24 23 23
23 24 23 22 21 21 22 23 22 20 21 18 19 20 21 20 21 20 21 21 22 21 21 20 21 22 21 22 24 26 24 23 21 21 21 21 22 23 24 25 25 23 22
24 23 22 22 22 22 18 16 17 19 20 20 18 18 19 17 18 21 21 21 21 21 21 22 22 22 21 23 25 25 24 23 21 22 22 22 22 24 23 24 23 23 23
24 24 20 16 15 15 16 17 18 17 16 17 17 18 20 20 21 21 21 22 22 22 22 20 20 22 21 23 24 23 23 22 22 21 21 22 23 24 24 24 23 23 21
14 14 14 14 14 16 16 15 15 14 16 18 19 20 21 21 22 23 23 22 21 21 21 19 19 21 22 23 23 22 23 23 23 21 21 22 23 23 24 24 21 21 22
13 14 13 14 16 16 16 14 15 18 20 20 20 21 21 22 23 23 21 21 20 19 18 17 16 17 20 22 22 21 21 22 23 22 23 23 24 23 20 20 21 21 22
12 12 13 16 17 17 16 18 20 22 21 21 20 21 23 22 24 22 20 19 19 18 17 15 15 17 19 21 23 21 22 23 24 24 23 21 19 18 21 22 22 21 22
12 13 14 15 16 19 21 22 24 24 22 21 21 22 23 20 22 21 20 18 17 16 15 16 17 20 23 19 18 21 24 23 22 24 24 22 20 21 21 21 19 20 23
14 15 15 16 19 22 23 25 25 25 23 22 22 21 20 21 18 18 16 14 14 15 16 19 22 16 15 16 16 18 18 17 17 17 16 16 17 16 16 17 20 21 22
14 15 18 20 22 24 24 25 25 23 21 19 18 18 18 17 14 13 13 14 15 16 17 14 12 14 14 15 15 14 14 15 16 16 17 17 17 17 18 19 17 18 17

GFSMW_sfc_30mbdewp_327.txt.gz
Dewpoint
30 33 35 36 36 37 37 38 38 42 41 39 38 37 36 39 41 43 46 45 43 45 45 45 44 44 44 45 45 44 43 40 41 36 33 34 35 39 38 38 38 39 38
28 31 35 36 36 36 37 37 37 38 38 37 37 36 38 40 43 45 45 45 45 44 42 42 41 41 39 40 41 42 42 41 43 40 35 30 31 33 35 38 39 40 38
27 30 33 35 36 36 37 36 37 38 39 40 38 39 41 41 43 42 41 41 40 40 39 38 37 36 35 35 38 39 40 38 40 44 39 33 30 36 36 36 39 40 39
27 28 32 34 36 36 38 37 37 39 40 41 38 38 36 38 43 41 39 37 37 35 34 33 33 32 31 33 33 34 36 35 33 38 38 43 42 37 31 34 35 38 38
27 27 30 33 35 36 37 38 37 39 40 40 40 39 40 44 44 41 36 35 34 33 32 32 32 31 29 33 34 32 31 30 28 28 31 33 34 39 34 31 30 31 34
27 28 29 32 34 37 38 38 37 38 40 40 41 41 44 43 41 39 34 31 31 31 32 30 30 30 29 30 31 32 30 29 28 26 26 27 26 27 27 25 25 27 28
27 28 28 31 33 35 37 38 37 37 39 40 41 42 44 42 39 37 31 28 28 29 30 29 29 27 30 30 28 30 32 30 28 28 25 25 25 25 23 21 20 20 19
26 27 28 30 32 35 36 37 36 37 39 41 43 44 42 37 34 33 30 28 27 28 31 28 29 30 28 25 25 24 29 31 28 28 28 25 24 24 23 22 21 19 18
25 26 28 31 33 34 36 38 37 37 40 43 42 40 37 34 31 31 31 29 30 28 29 29 28 29 26 23 25 26 28 26 25 25 24 21 19 21 20 21 20 19 17
26 26 28 31 33 35 36 39 38 39 42 41 38 35 34 33 31 31 29 30 29 28 27 27 27 27 24 23 25 23 24 23 21 18 19 17 17 18 19 20 18 19 18
28 28 30 32 34 35 37 39 40 41 40 37 35 33 33 32 30 29 29 29 29 27 26 26 26 25 23 23 23 23 22 21 20 19 17 18 17 14 13 15 16 16 16
32 33 35 36 37 37 39 40 40 38 35 33 32 33 33 31 29 28 28 29 27 28 28 27 26 24 23 22 22 22 20 20 18 18 18 15 13 15 15 17 17 18 19
35 36 36 36 37 38 38 37 35 32 30 30 31 31 31 29 27 28 28 27 26 25 25 25 26 24 24 23 22 22 21 20 19 18 16 15 15 14 14 18 18 18 19
35 33 33 33 34 34 33 30 29 28 27 27 28 29 28 28 26 27 26 26 26 25 24 24 25 26 25 24 21 20 21 21 20 20 18 16 16 14 16 18 17 17 17
31 30 30 30 29 28 26 25 26 25 24 23 22 24 27 27 25 25 26 26 26 26 26 24 24 25 26 23 20 20 20 20 21 21 18 16 17 18 19 16 15 16 16
28 27 27 26 24 24 22 22 22 22 21 20 19 22 25 23 24 25 26 25 24 24 24 24 24 24 22 21 24 25 21 21 21 21 18 16 18 19 22 24 25 25 19
27 26 25 24 22 22 22 22 23 24 22 21 21 21 22 21 22 20 21 23 23 22 21 20 20 20 20 23 25 26 21 21 22 22 22 22 18 18 18 19 21 23 24
26 24 23 22 22 23 22 20 20 20 20 18 17 16 17 16 19 21 21 21 20 20 20 20 19 18 16 20 24 26 20 20 19 20 21 23 20 18 19 18 17 15 15
25 23 24 23 19 18 18 17 16 15 15 15 15 17 19 20 21 20 20 20 20 18 17 15 15 14 13 16 23 24 16 15 16 16 17 19 18 18 20 19 16 15 16
23 20 18 17 17 18 16 14 14 14 15 17 18 21 21 20 19 21 20 19 17 14 14 13 13 15 14 16 18 20 16 14 13 16 16 18 20 22 23 21 18 21 19
15 15 16 16 16 16 15 13 14 15 18 20 21 20 21 19 18 19 18 17 15 13 13 12 12 12 13 14 17 21 19 15 15 15 15 17 20 21 22 23 20 15 18
13 14 15 15 14 12 13 15 18 20 21 20 19 19 19 18 17 17 15 14 13 13 11 11 10 11 13 16 20 18 17 19 17 16 18 19 20 23 21 18 17 20 21
13 14 14 13 16 20 20 20 21 20 19 17 17 17 17 15 15 14 13 12 11 11 10 10 11 14 17 14 13 15 18 18 20 17 17 17 16 15 15 14 17 19 15
13 13 10 16 20 21 21 21 21 19 16 14 13 13 12 14 12 11 10 10 10 11 12 12 14 14 11 12 17 18 18 17 17 18 17 17 18 18 18 17 16 18 20
11 10 16 20 21 21 21 20 17 15 12 10 10 10 10 10 9 10 11 11 12 14 12 11 12 14 15 15 15 16 17 18 18 18 15 14 15 15 15 15 16 21 16
12 18 21 21 20 19 19 18 16 12 10 7 7 8 9 9 9 9 9 9 11 11 12 12 14 14 13 13 14 15 16 16 13 13 14 15 15 14 15 14 14 14 15

GFSMW_sfc_30mbdewp_330.txt.gz
Dewpoint
30 29 32 34 32 35 37 36 37 40 41 39 37 36 36 39 41 43 47 46 46 46 46 44 43 41 39 39 38 37 34 33 37 34 30 31 34 36 37 35 38 39 37
30 29 33 34 34 34 35 35 35 40 39 36 36 35 36 39 43 45 46 46 46 45 42 42 38 37 33 34 35 34 31 27 34 34 31 25 26 32 32 36 37 39 39
29 29 32 35 35 33 35 34 35 37 38 35 36 38 41 42 42 44 43 43 42 41 38 35 34 32 31 30 31 31 30 27 25 31 35 30 25 32 33 30 36 35 36
29 28 30 33 35 35 35 35 35 36 37 39 35 35 34 34 40 42 41 40 38 35 33 32 32 31 29 31 29 28 30 28 23 23 26 32 34 32 31 28 26 31 28
29 28 29 32 35 36 36 37 36 37 36 39 37 37 36 38 43 42 40 38 36 33 31 31 30 30 29 30 32 31 30 26 26 23 23 24 24 24 32 22 22 21 23
29 29 29 30 33 36 38 38 37 35 38 40 40 39 38 42 43 41 39 35 32 31 31 29 30 30 29 28 27 29 29 29 28 27 24 23 22 22 22 21 20 19 19
29 30 28 29 31 35 38 38 37 35 38 40 41 41 43 45 44 42 37 33 30 28 28 28 28 26 28 27 26 25 27 29 28 28 26 24 23 24 22 21 20 19 19
29 30 30 30 31 34 37 38 36 35 38 40 41 43 45 43 41 38 33 29 27 26 28 26 26 26 26 25 24 23 26 27 26 26 26 24 21 21 20 19 18 17 16
28 29 30 31 31 33 36 38 37 36 37 40 43 44 43 40 36 35 33 29 28 25 26 26 26 26 25 24 23 22 24 24 23 23 23 21 18 18 19 19 19 18 15
28 27 28 30 32 33 34 39 38 37 39 43 43 42 40 37 35 33 30 29 27 26 24 24 25 25 25 24 23 21 21 22 22 20 19 20 18 18 16 15 14 14 14
31 31 30 31 32 34 35 39 40 38 42 42 40 39 37 34 32 30 28 27 27 25 23 23 23 23 23 23 23 22 21 20 20 21 20 19 19 17 16 15 14 15 15
34 35 35 35 34 35 36 39 40 41 41 39 38 37 35 32 30 28 27 27 25 25 24 23 23 22 22 22 22 22 21 21 21 20 20 18 16 17 16 15 14 14 15
35 36 36 36 37 38 39 40 40 38 37 35 34 33 32 30 27 26 26 25 25 23 22 22 22 21 22 22 22 21 21 20 21 21 21 20 18 16 15 15 14 14 14
33 34 36 37 38 38 38 37 35 33 31 30 28 28 27 25 25 25 26 24 24 24 24 24 24 23 22 21 21 20 20 20 19 20 21 23 22 18 18 14 14 12 11
31 32 34 35 35 34 32 30 29 27 25 23 23 25 25 24 24 24 25 25 26 25 24 24 23 23 22 17 22 22 22 21 20 20 22 21 26 24 20 17 17 15 12
30 31 32 31 30 29 26 25 24 24 24 23 23 23 23 22 24 23 22 23 23 22 21 19 19 19 17 22 25 23 18 16 17 17 15 21 25 29 28 25 24 22 17
30 29 28 27 26 25 25 25 24 23 21 20 19 19 18 18 19 18 18 18 18 19 19 19 18 17 17 20 19 23 15 13 12 13 16 17 18 25 27 22 22 21 21
28 27 26 25 25 24 23 22 20 19 18 17 16 16 16 14 15 16 17 18 18 18 17 15 14 13 12 17 20 22 15 12 11 11 12 13 14 16 19 19 16 14 13
27 26 25 23 22 20 18 17 16 17 16 15 13 14 16 16 15 16 17 16 16 14 12 11 12 12 13 15 19 18 13 12 14 14 14 14 14 15 22 19 15 15 15
25 23 22 21 19 18 17 16 15 13 12 15 16 17 17 16 13 14 14 14 13 11 11 11 11 12 11 14 17 20 17 15 11 10 10 13 18 25 23 20 16 17 18
20 19 19 17 16 16 14 11 12 14 16 16 15 14 14 14 12 13 13 12 12 12 11 9 9 9 10 14 19 18 13 12 14 13 14 15 21 23 18 17 16 15 18
17 17 15 14 14 12 12 13 14 14 14 13 12 11 12 11 10 12 10 10 9 9 9 8 8 9 12 12 12 18 17 17 15 17 17 18 18 16 16 17 16 17 19
15 14 14 16 16 15 15 15 15 13 11 9 8 8 9 9 9 8 8 8 8 9 8 7 8 10 12 14 16 16 15 16 17 17 20 18 16 16 18 19 19 18 17
14 12 14 15 16 16 16 14 13 11 7 5 6 6 6 8 8 8 8 8 8 10 10 10 12 13 15 15 14 15 17 17 17 18 16 17 18 19 19 19 19 21 20
11 13 14 14 15 15 14 12 9 8 5 4 4 5 6 7 7 7 7 6 9 12 11 12 12 14 15 13 15 17 17 18 17 15 17 17 16 16 17 18 18 18 18
12 14 15 14 14 14 13 11 10 8 7 3 3 5 6 6 5 4 3 9 11 11 12 11 13 13 13 13 13 15 15 15 14 15 17 16 17 16 17 17 17 15 16

GFSMW_sfc_30mbdewp_336.txt.gz
Dewpoint
39 35 32 31 31 39 41 43 43 46 46 45 43 42 42 42 45 46 48 49 49 47 44 42 40 39 39 40 39 38 36 34 33 31 28 33 32 33 33 35 37 41 38
36 35 33 32 33 39 41 42 42 45 45 44 43 42 43 42 46 49 49 48 46 43 39 40 39 39 38 39 39 37 35 32 33 30 28 26 26 27 28 32 35 33 34
34 35 33 33 34 39 40 40 40 44 44 42 42 40 43 44 45 48 48 45 42 40 39 38 39 39 38 38 38 37 36 33 32 31 30 25 24 26 29 27 28 29 32
33 34 33 34 36 37 39 40 39 43 43 43 39 38 38 39 42 47 46 44 41 38 37 38 38 38 39 37 35 35 36 35 32 32 30 30 29 26 25 26 25 26 26
31 32 33 34 36 37 39 40 40 41 42 42 42 40 39 44 45 46 45 44 41 37 35 36 38 38 37 36 35 34 34 34 34 33 31 30 28 27 25 24 25 25 25
27 32 34 34 35 40 41 40 40 38 41 43 41 44 40 40 44 45 45 44 42 39 36 35 36 37 35 34 33 34 32 33 34 33 32 30 28 27 25 24 23 23 23
29 31 32 32 33 38 41 41 40 38 40 42 44 43 42 42 43 45 45 43 39 38 36 35 35 34 34 34 33 32 31 33 32 32 31 31 29 28 25 23 22 22 22
32 31 32 33 33 38 41 41 40 39 40 42 43 44 43 44 45 45 44 40 37 37 34 34 34 34 34 33 33 32 32 30 31 31 32 30 29 27 25 24 23 21 20
30 31 32 34 34 37 41 42 41 40 39 42 43 44 45 45 45 44 41 38 35 32 33 33 33 32 32 32 33 32 32 31 31 31 31 31 28 28 27 26 23 22 19
32 31 31 33 35 36 41 45 43 40 40 44 44 45 46 45 43 41 38 35 35 33 33 32 32 31 31 31 31 31 31 31 31 30 28 29 29 28 28 27 26 24 21
35 36 36 36 36 38 42 45 43 41 43 45 47 46 43 41 39 37 34 35 34 32 31 31 31 30 30 31 30 30 27 28 28 30 28 28 28 29 30 29 28 27 26
36 37 37 37 36 37 39 43 44 46 46 45 45 43 41 38 35 34 33 34 32 33 32 32 31 29 28 28 27 26 27 26 25 24 22 22 23 24 30 34 33 32 29
36 38 39 38 38 39 41 44 44 43 42 42 41 40 36 34 34 33 33 33 33 32 30 29 28 26 26 23 24 22 22 21 21 20 18 17 16 18 24 31 31 30 28
36 38 39 40 40 41 42 41 40 40 39 37 35 34 32 31 32 33 32 30 28 27 26 26 25 25 23 21 18 17 19 19 17 18 18 17 17 20 21 24 26 27 28
36 37 38 39 38 38 37 36 35 33 32 31 30 30 30 29 28 27 25 25 25 25 25 24 23 22 19 18 19 17 16 16 15 16 16 17 20 19 24 20 24 27 27
34 35 34 34 33 32 31 30 30 29 28 26 24 24 22 19 20 21 21 23 23 23 23 21 21 20 15 22 23 18 16 16 15 15 17 19 19 21 24 24 25 28 28
33 32 31 30 30 30 30 28 26 25 23 21 18 16 17 17 18 18 19 20 21 20 20 20 19 19 21 22 22 22 17 17 16 15 16 16 16 26 25 24 22 21 21
30 30 30 30 29 27 26 25 23 22 18 16 15 15 16 15 16 16 16 19 18 18 18 17 17 16 21 23 21 20 17 15 14 16 16 16 17 26 25 22 20 19 18
31 31 30 27 25 23 23 20 17 16 16 15 14 14 14 14 13 13 16 17 16 16 15 14 15 16 21 22 21 19 16 14 14 15 14 15 16 21 26 23 21 18 17
29 28 26 24 24 22 20 18 16 14 12 12 12 11 13 12 11 14 15 15 14 12 13 13 15 14 18 20 20 19 16 15 15 15 17 17 19 22 19 17 17 17 16
26 25 24 23 21 19 17 14 11 10 10 8 9 9 11 10 11 14 14 13 12 13 14 13 14 15 16 17 19 18 17 17 17 18 17 19 19 17 17 17 19 19 22
24 22 20 18 17 16 13 9 6 5 6 6 7 7 10 10 9 12 13 12 11 13 13 12 13 14 15 17 17 17 16 17 18 18 19 19 17 18 20 23 23 21 23
20 19 19 16 14 12 11 9 6 4 4 5 7 7 8 9 10 10 10 8 11 13 11 12 14 14 15 16 16 14 15 17 18 18 17 17 19 23 23 21 21 21 22
19 19 17 15 12 10 7 6 6 5 5 5 6 7 8 9 10 8 7 7 12 13 11 12 14 15 15 15 14 15 18 19 19 18 19 20 22 21 20 20 20 20 21
19 18 16 14 11 8 7 7 6 6 6 6 6 8 8 10 8 7 8 10 14 12 12 14 14 14 14 13 14 15 18 18 18 19 20 21 19 19 19 19 19 19 19
18 17 14 12 9 7 8 9 9 7 8 6 6 7 7 8 6 5 7 13 12 14 15 16 15 16 13 13 15 17 17 16 19 17 18 17 18 18 17 17 17 17 18

GFSMW_sfc_30mbdewp_342.txt.gz
Dewpoint
36 30 37 39 40 41 42 40 41 42 46 43 41 42 44 47 48 49 45 43 40 41 38 38 39 38 37 37 35 35 35 33 34 30 29 28 28 29 28 30 29 28 27
36 30 35 39 40 40 41 42 43 43 44 42 42 43 44 47 49 48 44 41 40 39 38 37 38 37 35 35 34 33 33 33 35 31 31 26 26 28 27 29 28 27 28
35 30 35 38 39 40 41 43 43 43 43 42 43 45 47 48 47 46 43 41 39 38 38 38 38 37 35 33 33 32 34 30 33 33 29 26 27 28 28 28 28 25 26
34 30 34 37 39 40 42 43 43 44 43 43 43 44 46 46 47 46 43 40 39 38 38 38 37 36 34 33 33 32 31 32 31 33 32 31 30 26 26 27 26 25 25
35 30 32 36 39 40 41 43 43 44 43 43 43 43 44 44 47 45 41 38 37 37 38 38 37 35 34 33 32 30 28 32 32 31 30 29 28 29 27 25 25 25 24
37 31 31 36 38 40 42 42 43 43 43 43 44 40 41 45 46 43 41 39 38 37 38 37 35 34 34 33 32 31 29 28 32 32 31 29 27 28 28 26 26 25 23
37 33 31 36 37 40 41 41 44 43 43 42 42 43 42 45 45 44 42 42 40 37 35 35 34 33 33 33 34 33 32 32 32 32 32 32 31 32 31 29 27 25 24
35 34 33 35 37 39 40 40 41 43 43 42 41 42 45 46 45 45 44 43 39 36 35 34 33 33 33 33 34 34 33 32 29 25 26 30 30 34 33 33 32 30 29
36 36 35 35 37 38 39 40 40 41 43 42 43 46 44 41 38 37 37 36 36 34 33 33 32 32 31 31 31 28 27 25 26 24 22 22 23 23 21 25 29 31 26
36 36 37 38 37 40 39 39 41 42 44 46 44 42 39 37 36 36 35 34 34 34 32 31 30 29 29 28 27 24 24 20 22 20 19 19 19 19 21 22 25 25 28
37 39 43 45 43 42 42 44 45 44 43 41 38 37 37 36 36 36 34 32 32 30 29 29 29 28 25 24 22 21 20 18 19 19 19 19 19 19 20 22 27 27 28
41 43 43 43 44 45 45 43 42 41 39 38 36 36 35 34 32 31 30 29 27 28 28 27 27 25 23 22 20 18 19 18 18 17 18 19 20 21 22 24 26 27 27
41 42 41 41 42 42 41 40 37 35 34 34 34 33 31 28 28 28 28 27 27 26 25 25 25 23 21 19 19 19 18 18 18 18 19 21 23 25 26 25 25 26 26
41 41 40 40 39 38 36 34 33 32 33 31 30 28 26 26 27 26 25 24 24 23 22 23 24 22 19 18 18 18 19 18 18 19 20 20 24 24 24 23 24 24 24
39 38 37 33 32 33 32 31 30 27 26 25 24 24 25 25 24 23 23 22 22 22 22 22 22 22 22 22 23 21 19 19 18 19 19 16 19 22 23 23 22 22 21
36 34 31 30 29 28 27 27 25 22 21 22 22 22 22 21 21 22 20 19 18 20 19 21 23 23 23 23 22 19 17 17 17 17 17 17 15 19 24 23 22 21 20
34 31 29 28 27 26 25 23 21 22 21 20 20 20 20 18 19 19 17 17 17 17 18 22 24 23 23 23 22 19 17 17 17 16 17 17 18 20 23 20 19 19 18
32 31 29 26 25 23 20 20 20 19 18 18 18 17 18 16 17 16 16 15 16 16 17 23 23 22 22 22 21 18 17 17 17 18 18 18 19 20 19 20 20 19 19
31 28 26 25 21 19 19 18 17 17 17 17 15 15 16 15 15 14 15 16 16 15 15 21 21 21 20 20 21 18 16 16 17 17 17 18 18 20 22 22 22 22 21
28 26 25 22 19 18 16 14 14 15 14 15 14 15 14 15 13 14 15 16 15 13 14 17 17 17 18 19 20 17 16 16 17 17 17 18 19 22 23 22 20 21 20
25 24 21 19 17 16 14 11 10 11 15 15 15 13 12 14 13 15 15 14 13 12 13 15 16 16 18 17 17 16 17 18 18 18 17 18 21 21 18 18 20 19 19
23 21 19 17 13 10 8 7 8 11 12 14 13 11 11 12 13 13 15 14 13 12 12 13 14 15 17 16 17 17 18 19 20 19 19 20 19 18 18 19 17 17 20
20 18 14 11 10 8 6 6 8 11 11 12 12 11 11 12 12 9 12 13 13 12 12 13 13 13 16 15 17 18 20 21 21 20 20 18 18 18 19 18 17 19 19
14 12 10 9 8 8 8 9 10 11 11 10 9 9 10 12 9 9 9 13 13 12 12 12 12 14 14 16 17 19 20 20 20 19 19 18 19 18 18 18 18 19 18
13 11 9 8 8 8 8 10 11 12 10 9 8 8 11 9 7 8 11 12 14 13 12 12 13 13 14 16 18 19 17 18 18 17 16 16 16 15 16 16 16 17 18
14 12 9 9 10 10 10 11 11 11 8 6 7 8 8 9 7 6 10 15 19 19 20 19 18 19 17 16 18 16 16 16 15 15 15 15 15 14 15 14 15 16 15

GFSMW_sfc_30mbdewp_345.txt.gz
Dewpoint
32 35 38 39 41 40 40 39 38 41 43 43 43 44 45 47 48 47 43 41 40 38 38 39 37 36 35 33 33 33 32 32 34 28 27 29 30 27 29 28 27 27 26
32 32 37 39 40 40 40 39 39 42 43 42 42 43 46 47 49 46 42 40 39 38 38 38 36 34 33 32 31 32 31 31 34 28 30 25 26 27 28 28 26 25 26
37 30 37 38 40 40 40 39 40 42 44 42 44 46 48 48 47 44 41 40 38 38 38 38 36 34 33 32 30 30 31 29 33 32 26 22 24 28 29 28 27 26 25
42 31 34 38 39 40 41 41 42 42 43 42 43 44 45 46 46 45 42 40 38 38 38 37 36 34 33 32 31 30 30 31 30 32 32 30 29 25 25 27 26 27 25
41 32 33 37 39 40 41 42 43 43 43 43 42 43 45 46 47 45 40 38 38 39 38 37 35 34 33 32 31 29 29 31 32 31 30 29 29 29 27 25 26 27 26
40 33 32 36 39 40 41 43 43 43 43 43 42 42 44 45 46 43 40 38 37 39 37 36 34 34 33 33 33 33 32 32 32 32 32 32 30 30 30 29 30 28 27
40 33 32 36 39 40 41 43 42 42 43 43 43 42 43 45 45 43 41 39 38 37 35 35 34 35 34 35 34 32 30 27 24 24 27 29 30 33 31 31 31 30 30
37 33 32 35 38 40 41 41 43 42 43 43 43 43 44 46 45 44 43 42 38 36 36 35 32 32 33 31 29 27 27 26 22 20 18 19 21 25 26 25 28 25 29
35 34 34 36 38 40 41 41 43 43 44 43 44 45 45 42 41 41 40 37 36 34 32 31 30 31 31 28 25 22 20 21 22 19 19 19 20 21 22 23 23 25 23
37 39 39 37 38 39 40 41 42 43 44 44 40 38 37 37 36 36 34 33 33 32 31 30 28 27 28 25 21 20 20 18 19 19 19 19 20 21 21 22 24 26 27
40 42 44 44 41 40 41 44 44 43 40 38 37 37 36 35 34 33 32 31 32 31 29 29 26 24 22 21 19 17 18 18 18 18 19 20 22 23 23 24 26 27 27
42 42 43 44 44 44 43 42 40 38 37 36 36 34 32 31 30 29 30 30 29 28 27 26 25 23 21 19 19 18 19 19 18 19 20 20 24 24 25 24 23 24 26
41 41 41 41 40 39 38 37 36 35 34 33 31 30 29 28 28 27 28 27 25 24 25 24 23 21 20 19 19 20 19 19 19 19 20 21 25 24 24 24 22 24 23
40 40 39 37 36 34 33 33 33 32 30 27 27 28 27 25 25 25 24 23 23 22 23 24 23 21 21 22 21 19 18 18 18 20 19 18 17 22 23 22 23 22 21
39 36 35 34 33 31 30 29 29 26 25 24 25 25 25 24 23 22 21 21 22 23 23 23 23 23 23 23 22 18 18 17 17 18 17 17 19 19 20 23 25 23 21
36 33 33 32 30 28 25 23 23 23 22 22 22 23 22 22 21 20 19 19 18 20 23 24 24 23 23 23 22 19 17 16 17 17 17 18 18 20 20 21 19 19 18
33 31 30 29 27 25 23 22 22 22 21 21 20 20 20 19 18 18 18 17 17 20 23 23 23 23 23 23 22 20 17 17 17 17 18 17 18 20 21 21 22 21 21
31 29 28 26 24 22 22 21 20 20 19 18 18 18 18 16 17 16 17 16 16 19 22 22 22 22 22 22 21 19 17 17 17 18 18 18 18 19 22 25 23 22 22
31 28 26 23 20 20 19 19 19 18 17 16 16 17 16 15 16 15 15 15 14 16 20 21 20 18 18 20 20 17 16 16 17 17 18 19 19 20 25 21 20 19 20
29 26 23 20 19 18 17 16 16 16 15 15 16 17 16 15 15 16 15 14 13 14 17 16 17 17 17 18 17 18 17 17 18 18 18 19 20 23 20 18 19 19 19
26 24 20 19 17 16 15 14 15 15 16 17 15 15 15 14 15 15 14 13 13 13 14 15 15 16 17 16 17 18 19 20 19 19 18 19 21 18 18 18 19 18 18
24 20 19 16 15 13 11 11 12 16 16 14 13 12 13 13 15 14 14 13 13 12 12 13 13 14 16 16 18 19 20 21 21 20 20 20 17 16 17 17 17 17 19
20 18 15 12 10 9 9 9 12 14 14 11 10 12 13 12 13 12 13 13 13 12 12 13 13 13 14 15 18 20 22 21 21 19 17 16 16 16 18 17 16 17 19
17 13 10 9 8 8 9 10 12 13 12 10 10 11 11 11 10 9 10 13 13 12 12 12 12 13 14 15 18 20 19 20 18 18 17 17 18 17 16 17 17 17 18
13 11 9 8 8 10 10 12 13 13 10 9 9 10 12 8 7 9 12 13 14 14 13 13 14 15 14 16 18 18 17 17 17 15 15 15 14 13 14 15 15 16 17
11 10 9 9 9 10 10 12 13 11 8 7 8 9 9 7 6 7 11 17 20 19 21 21 18 18 16 17 17 16 16 15 14 14 15 13 13 13 14 14 14 14 15

GFSMW_sfc_30mbdewp_348.txt.gz
Dewpoint
41 39 40 39 40 40 38 39 38 41 43 44 44 45 45 47 47 44 42 40 39 39 38 36 34 33 31 31 31 32 30 32 32 25 27 29 30 28 28 28 27 26 26
39 37 38 39 39 40 39 39 38 41 43 43 44 44 46 47 48 44 41 40 38 38 38 35 34 33 31 30 30 30 29 31 33 26 28 23 25 28 28 29 28 27 26
41 35 37 39 40 40 39 39 38 41 43 42 44 47 48 48 46 42 40 40 38 38 37 36 34 33 32 30 30 29 30 28 31 31 23 20 21 27 27 25 27 27 27
42 34 36 38 39 40 40 39 40 41 43 43 44 45 45 46 46 44 41 39 39 39 38 36 34 33 33 31 31 30 30 31 29 31 31 30 29 25 25 27 27 30 29
43 36 34 37 39 40 40 40 41 42 43 43 44 44 45 46 47 44 39 38 39 39 38 36 34 33 33 33 32 32 32 32 32 32 32 31 30 29 29 27 28 31 31
44 39 32 37 39 40 41 41 41 41 43 43 43 44 45 45 46 42 39 37 38 39 38 35 35 35 35 35 35 32 29 26 27 29 28 30 31 30 30 27 29 32 28
43 39 33 36 39 40 41 42 42 42 43 43 42 43 44 45 46 43 39 37 38 36 35 35 34 35 34 32 31 27 24 22 19 18 18 20 19 28 27 26 24 25 27
37 39 33 35 38 40 41 41 42 42 43 43 43 42 43 45 45 43 40 39 37 36 33 32 33 32 30 26 24 24 25 22 19 18 18 19 20 22 21 22 21 19 23
34 33 34 36 38 40 41 41 42 43 43 43 44 45 44 44 43 42 39 36 33 32 32 32 31 29 27 24 22 20 19 18 19 19 18 19 21 22 22 23 23 23 21
39 40 38 36 39 40 41 42 43 43 43 43 41 39 38 37 36 34 33 32 33 33 32 29 27 26 24 21 19 19 19 18 19 19 19 20 22 23 24 25 26 27 27
41 42 43 42 39 41 42 43 44 42 40 38 38 36 35 33 32 32 32 33 33 32 30 26 24 22 20 19 18 18 20 19 19 19 20 21 24 24 25 25 24 24 25
41 42 42 43 43 43 43 41 39 38 37 36 34 33 31 30 30 31 30 30 30 28 26 25 23 21 20 20 20 19 19 19 18 19 20 20 24 24 24 24 22 22 23
41 41 40 39 39 38 37 37 36 35 33 32 31 30 29 29 28 28 28 27 25 25 26 24 22 20 20 20 19 19 19 18 18 20 19 18 18 20 24 23 23 23 21
40 38 36 35 35 35 35 33 32 30 29 28 27 27 26 26 26 25 25 25 24 24 25 22 21 23 23 22 20 18 18 17 17 18 18 18 19 20 21 22 24 23 22
38 36 34 33 32 32 31 29 27 27 27 25 25 25 25 25 24 23 23 23 23 24 25 24 24 23 23 23 21 17 17 16 16 18 17 17 21 20 20 21 21 20 20
35 34 32 31 29 28 26 25 25 25 24 23 23 24 23 22 21 21 20 20 21 23 24 24 23 23 23 23 22 21 17 17 16 17 18 18 18 19 19 21 22 23 21
34 33 31 29 26 25 24 23 23 23 22 21 22 21 21 20 19 19 17 18 20 23 23 22 22 22 23 23 21 20 17 17 17 18 18 17 17 19 20 22 25 23 21
33 31 29 26 24 23 23 22 22 21 20 19 19 19 19 17 17 17 16 17 20 21 22 22 22 21 21 21 21 19 17 17 17 18 18 18 19 19 21 25 19 18 19
32 30 28 24 22 21 21 20 19 19 18 18 17 17 17 16 17 15 14 15 18 21 20 21 19 17 16 20 18 19 17 17 18 18 18 19 19 21 22 19 18 17 18
30 28 24 22 21 19 19 18 17 16 16 17 17 17 17 16 15 15 14 13 13 18 19 16 16 18 15 17 18 19 19 19 19 19 18 18 19 20 18 18 18 18 18
27 24 22 20 19 19 18 16 16 14 17 18 17 17 15 15 16 15 14 13 13 15 16 14 14 16 16 16 18 20 20 20 20 18 17 18 18 17 17 17 17 18 18
24 22 20 18 17 17 16 15 13 17 17 16 16 15 15 15 16 14 13 13 13 12 12 13 13 13 15 16 18 21 21 21 20 17 18 17 16 16 16 16 16 16 17
22 20 18 16 15 14 14 13 15 16 15 13 13 13 13 14 15 13 13 13 13 12 12 13 12 12 14 15 18 20 20 20 19 17 16 16 15 15 16 16 15 16 17
20 17 15 13 11 11 12 13 15 15 12 11 12 12 11 12 11 11 12 12 13 13 13 13 13 14 15 15 18 20 19 18 18 17 17 16 16 15 15 15 15 15 16
17 15 14 12 10 10 12 14 15 14 11 10 11 12 13 10 9 9 11 12 14 14 13 14 14 15 13 16 18 17 18 17 16 15 15 15 13 12 12 14 14 15 15
14 13 11 10 10 11 12 14 14 12 9 8 9 11 9 8 7 8 12 18 20 20 21 21 18 17 17 18 17 17 16 14 14 14 13 12 11 11 12 13 13 13 14

GFSMW_sfc_30mbdewp_351.txt.gz
Dewpoint
48 47 46 45 43 42 40 41 42 45 46 45 45 46 46 48 46 44 43 42 42 40 39 37 36 35 34 35 34 33 33 31 31 28 29 30 32 31 29 29 28 28 26
45 44 44 43 43 41 40 40 41 44 45 45 46 46 47 49 46 44 43 41 42 42 39 37 36 35 34 34 34 33 31 31 32 28 28 26 26 28 26 28 28 30 27
46 43 42 42 43 41 40 40 40 43 44 45 46 47 49 48 45 43 41 40 41 41 39 38 37 37 34 33 33 33 33 29 30 33 27 26 24 25 25 25 27 29 29
47 44 41 41 42 42 41 40 40 42 44 46 45 45 44 45 46 44 41 40 41 40 39 38 37 36 35 35 33 34 34 33 31 31 32 32 31 24 20 22 24 28 27
47 45 41 41 42 42 41 41 41 42 44 45 45 46 45 46 48 45 42 40 41 40 39 38 37 37 36 37 37 35 34 33 32 31 30 30 28 28 25 20 19 20 22
46 46 40 41 41 42 42 42 41 41 45 45 46 46 47 47 46 44 41 39 40 40 38 37 38 38 37 34 31 29 27 25 24 22 21 19 19 18 18 16 15 15 16
45 45 37 38 40 41 42 42 41 40 44 45 46 46 47 48 47 45 41 39 39 37 37 37 36 34 33 31 28 26 24 22 20 19 17 17 16 17 15 13 12 13 13
45 44 39 38 40 41 42 42 41 40 44 45 45 46 47 47 47 45 41 40 38 36 36 34 32 30 27 25 25 22 20 21 19 19 17 16 16 17 18 17 17 15 14
36 40 38 38 40 41 42 43 42 42 43 45 45 45 47 47 46 44 41 38 34 34 35 32 30 28 25 23 22 20 19 19 19 19 19 18 18 19 20 21 21 21 18
40 39 36 39 40 41 42 44 44 43 45 46 46 45 45 45 43 40 36 34 34 34 32 30 28 25 23 22 21 20 20 19 19 17 18 18 20 20 21 21 21 22 22
42 43 42 39 41 42 43 44 44 44 44 44 42 42 41 39 37 35 35 36 34 31 29 26 24 22 21 21 20 20 20 19 18 18 18 18 22 21 20 20 20 20 20
42 42 42 42 42 43 44 44 43 42 42 41 40 38 37 36 34 34 34 33 31 29 26 24 21 20 20 21 20 19 18 17 16 16 16 15 15 15 20 20 19 19 19
41 41 41 41 41 41 41 41 40 39 38 37 36 35 34 33 32 31 31 27 29 28 24 23 21 21 21 20 19 18 17 16 15 16 16 16 16 18 20 19 20 20 19
40 38 38 38 38 39 38 37 36 36 35 33 33 32 31 30 29 27 25 27 26 25 23 22 22 23 22 20 19 17 15 15 15 17 17 17 18 20 19 17 18 17 17
38 37 36 36 36 36 35 34 33 32 31 30 30 29 28 26 25 24 25 24 24 24 23 24 24 24 22 20 21 18 14 14 15 16 16 16 20 20 20 19 20 21 20
37 35 35 35 34 33 32 31 30 29 29 27 26 25 24 23 23 23 23 23 23 24 24 23 23 22 20 23 22 21 14 15 15 15 15 16 17 19 19 21 22 24 18
37 35 34 33 32 30 30 29 28 27 26 24 23 22 21 20 20 19 19 20 21 23 22 21 21 20 21 23 21 20 15 15 15 15 15 15 16 18 18 19 21 17 17
36 35 33 31 30 29 28 27 25 25 23 21 19 19 18 18 17 17 17 19 20 20 19 19 19 17 16 21 20 20 17 16 17 17 16 16 16 17 20 19 16 15 15
37 34 32 29 28 27 26 24 22 21 20 19 17 17 17 16 16 15 16 16 18 18 18 18 17 15 12 19 19 19 17 16 17 17 17 18 16 18 20 17 15 14 14
35 32 29 28 26 25 24 22 20 18 17 17 16 17 16 16 15 15 14 13 15 16 17 15 14 17 11 15 19 20 17 16 16 16 15 16 17 18 18 16 15 14 15
33 30 27 27 25 23 21 19 18 17 17 17 17 17 16 15 15 14 12 12 13 15 14 11 12 13 13 12 18 21 18 16 16 15 14 14 16 17 17 16 14 15 16
30 28 27 25 22 21 20 17 16 16 16 16 15 15 15 14 14 13 12 12 13 12 13 12 11 11 12 13 15 21 20 19 15 14 14 14 16 16 15 15 15 15 16
29 27 25 22 21 19 18 16 16 15 15 15 13 13 14 14 14 12 11 11 13 12 12 12 12 11 12 13 17 21 19 18 17 16 16 16 15 14 13 14 15 14 15
27 26 23 20 19 18 17 16 16 14 13 12 13 13 13 13 13 11 10 10 12 12 12 12 12 14 14 13 16 17 18 17 16 16 14 15 15 13 14 14 14 14 14
25 23 21 19 17 16 16 16 15 13 11 11 12 11 12 12 10 9 9 9 13 13 12 13 14 15 16 14 18 17 17 16 16 15 15 14 14 14 14 13 13 13 13
23 21 20 17 15 14 15 15 14 12 10 10 10 11 10 10 8 8 15 21 20 20 20 20 18 17 16 17 17 16 17 14 15 12 12 13 14 13 12 12 12 13 12